Terminal Aerodrome Forecast
Issued by NWS

Home | Current Version | Previous Version | Text Only | Print | Product List | Glossary Off
Versions: 1 2 3 4 5 6 7 8 9 10 11 12 13 14 15

000
FTUS42 KMHX 021740
TAFISO
TAF
KISO 021740Z 0218/0318 22009G18KT P6SM SCT050
     FM022200 21007KT P6SM VCTS BKN050CB
     FM030100 20009KT 3SM TSRA BKN025CB
     FM030500 23008KT P6SM VCSH BKN050
     FM031600 24012G20KT P6SM VCTS BKN035CB
      AMD LTD TO CLD VIS AND WIND=

USA.gov is the U.S. government's official web portal to all federal, state and local government web resources and services.